| time (UTC) | temp C | wind direction | speed KPH | gust KPH | rain 1hr cm | rain 24hr cm | rain mn cm | humidity % | barometer mb |
| 20260508101623 | 20 | 225 | 3.2 | 6.4 | 0.00 | 0.00 | 0.00 | 71 | 1018.6 |
| 20260508100121 | 20 | 180 | 1.6 | 8.0 | 0.00 | 0.00 | 0.00 | 73 | 1018.8 |
| 20260508094619 | 20 | 225 | 3.2 | 6.4 | 0.00 | 0.00 | 0.00 | 76 | 1019.1 |
| 20260508093117 | 20 | 180 | 1.6 | 8.0 | 0.00 | 0.00 | 0.00 | 76 | 1019.1 |
| 20260508091614 | 20 | 315 | 3.2 | 8.0 | 0.00 | 0.00 | 0.00 | 75 | 1019.3 |
| 20260508090112 | 20 | 293 | 3.2 | 8.0 | 0.00 | 0.00 | 0.00 | 75 | 1019.5 |
| 20260508084610 | 20 | 225 | 1.6 | 11.3 | 0.00 | 0.00 | 0.00 | 76 | 1019.5 |
| 20260508083108 | 20 | 315 | 6.4 | 14.5 | 0.00 | 0.00 | 0.00 | 78 | 1019.3 |
| 20260508081606 | 20 | 135 | 6.4 | 14.5 | 0.00 | 0.00 | 0.00 | 79 | 1019.1 |
| 20260508080104 | 20 | 225 | 6.4 | 8.0 | 0.00 | 0.00 | 0.00 | 78 | 1019.0 |
| 20260508074602 | 20 | 45 | 3.2 | 8.0 | 0.00 | 0.00 | 0.00 | 79 | 1018.7 |
| 20260508073059 | 20 | 225 | 3.2 | 11.3 | 0.00 | 0.00 | 0.00 | 80 | 1018.3 |
| 20260508071557 | 20 | 225 | 3.2 | 11.3 | 0.00 | 0.00 | 0.00 | 81 | 1017.8 |
| 20260508070055 | 19 | 225 | 4.8 | 6.4 | 0.00 | 0.00 | 0.00 | 81 | 1017.5 |
| 20260508064553 | 19 | 180 | 4.8 | 6.4 | 0.00 | 0.00 | 0.00 | 82 | 1017.4 |
| 20260508063051 | 19 | 180 | 3.2 | 6.4 | 0.00 | 0.00 | 0.00 | 82 | 1017.0 |
| 20260508061549 | 18 | 135 | 4.8 | 8.0 | 0.00 | 0.00 | 0.00 | 82 | 1016.9 |
| 20260508060046 | 18 | 135 | 3.2 | 8.0 | 0.00 | 0.00 | 0.00 | 82 | 1017.0 |
| 20260508054545 | 18 | 180 | 6.4 | 8.0 | 0.00 | 0.00 | 0.00 | 82 | 1017.3 |
| 20260508053042 | 18 | 180 | 1.6 | 3.2 | 0.00 | 0.00 | 0.00 | 82 | 1016.8 |
| 20260508051540 | 18 | 180 | 3.2 | 6.4 | 0.00 | 0.00 | 0.00 | 81 | 1016.8 |
| 20260508050038 | 18 | 135 | 3.2 | 3.2 | 0.00 | 0.00 | 0.00 | 80 | 1016.6 |
| 20260508044536 | 17 | 270 | 0.0 | 0.0 | 0.00 | 0.00 | 0.00 | 79 | 1016.3 |
| 20260508043034 | 17 | 225 | 0.0 | 0.0 | 0.00 | 0.00 | 0.00 | 78 | 1016.2 |
| 20260508041531 | 17 | 135 | 0.0 | 0.0 | 0.00 | 0.00 | 0.00 | 81 | 1016.2 |
| 20260508040030 | 17 | 315 | 0.0 | 3.2 | 0.00 | 0.00 | 0.00 | 80 | 1016.5 |
| 20260508034528 | 16 | 0 | 1.6 | 4.8 | 0.00 | 0.00 | 0.00 | 80 | 1016.6 |
| 20260508033011 | 16 | 0 | 3.2 | 4.8 | 0.00 | 0.00 | 0.00 | 80 | 1016.8 |
| 20260508031509 | 16 | 270 | 0.0 | 0.0 | 0.00 | 0.00 | 0.00 | 80 | 1016.9 |
| 20260508030007 | 16 | 225 | 0.0 | 0.0 | 0.00 | 0.00 | 0.00 | 79 | 1016.7 |
| 20260508024504 | 17 | 315 | 0.0 | 0.0 | 0.00 | 0.00 | 0.00 | 79 | 1016.8 |
| 20260508023002 | 17 | 270 | 0.0 | 0.0 | 0.00 | 0.00 | 0.00 | 78 | 1016.7 |
| 20260508021500 | 17 | 315 | 0.0 | 0.0 | 0.00 | 0.00 | 0.00 | 78 | 1016.7 |
| 20260508020001 | 17 | 270 | 0.0 | 3.2 | 0.00 | 0.00 | 0.00 | 78 | 1016.7 |
| 20260508014456 | 17 | 270 | 0.0 | 1.6 | 0.00 | 0.00 | 0.00 | 77 | 1016.8 |
| 20260508012954 | 17 | 180 | 0.0 | 0.0 | 0.00 | 0.00 | 0.00 | 77 | 1016.6 |
| 20260508011452 | 17 | 180 | 0.0 | 1.6 | 0.00 | 0.00 | 0.00 | 76 | 1016.6 |
| 20260508005950 | 17 | 225 | 0.0 | 0.0 | 0.00 | 0.00 | 0.00 | 75 | 1016.7 |
| 20260508004448 | 17 | 225 | 0.0 | 3.2 | 0.00 | 0.00 | 0.00 | 74 | 1016.8 |
| 20260508002945 | 17 | 45 | 0.0 | 3.2 | 0.00 | 0.00 | 0.00 | 74 | 1016.7 |
| 20260508001443 | 17 | 45 | 3.2 | 3.2 | 0.00 | 0.00 | 0.00 | 73 | 1016.9 |
| 20260507235941 | 17 | 315 | 0.0 | 0.0 | 0.00 | 0.00 | 0.00 | 73 | 1017.0 |
| 20260507234439 | 17 | 270 | 0.0 | 0.0 | 0.00 | 0.00 | 0.00 | 72 | 1017.1 |
| 20260507232936 | 17 | 270 | 0.0 | 0.0 | 0.00 | 0.00 | 0.00 | 72 | 1017.2 |
| 20260507231435 | 17 | 180 | 0.0 | 0.0 | 0.00 | 0.00 | 0.00 | 72 | 1017.3 |
| 20260507225932 | 17 | 315 | 0.0 | 0.0 | 0.00 | 0.00 | 0.00 | 71 | 1017.6 |
| 20260507224430 | 17 | 45 | 0.0 | 0.0 | 0.00 | 0.00 | 0.00 | 71 | 1017.7 |
| 20260507222928 | 17 | 0 | 0.0 | 0.0 | 0.00 | 0.00 | 0.00 | 71 | 1017.7 |
| 20260507221426 | 17 | 45 | 0.0 | 0.0 | 0.00 | 0.00 | 0.00 | 68 | 1017.8 |
| 20260507215924 | 17 | 0 | 0.0 | 3.2 | 0.00 | 0.00 | 0.00 | 68 | 1017.9 |
| 20260507214422 | 17 | 270 | 0.0 | 4.8 | 0.00 | 0.00 | 0.00 | 67 | 1018.0 |
| 20260507212920 | 17 | 315 | 3.2 | 4.8 | 0.00 | 0.00 | 0.00 | 67 | 1018.1 |
| 20260507211417 | 17 | 270 | 0.0 | 1.6 | 0.00 | 0.00 | 0.00 | 66 | 1017.9 |
| 20260507205916 | 17 | 180 | 0.0 | 3.2 | 0.00 | 0.00 | 0.00 | 66 | 1017.8 |
| 20260507204413 | 17 | 45 | 1.6 | 3.2 | 0.00 | 0.00 | 0.00 | 65 | 1017.8 |
| 20260507202912 | 18 | 315 | 3.2 | 4.8 | 0.00 | 0.00 | 0.00 | 65 | 1017.9 |
| 20260507201409 | 18 | 0 | 3.2 | 3.2 | 0.00 | 0.00 | 0.00 | 65 | 1018.0 |
| 20260507195906 | 18 | 270 | 0.0 | 1.6 | 0.00 | 0.00 | 0.00 | 65 | 1018.1 |
| 20260507194405 | 18 | 270 | 0.0 | 3.2 | 0.00 | 0.00 | 0.00 | 66 | 1018.0 |
| 20260507192902 | 18 | 225 | 0.0 | 3.2 | 0.00 | 0.00 | 0.00 | 66 | 1017.9 |
| 20260507191400 | 18 | 225 | 0.0 | 1.6 | 0.00 | 0.00 | 0.00 | 67 | 1018.1 |
| 20260507185859 | 19 | 45 | 1.6 | 4.8 | 0.00 | 0.00 | 0.00 | 67 | 1017.8 |
| 20260507184355 | 19 | 225 | 0.0 | 3.2 | 0.00 | 0.00 | 0.00 | 67 | 1017.9 |
| 20260507182854 | 20 | 225 | 0.0 | 3.2 | 0.00 | 0.00 | 0.00 | 66 | 1017.7 |
| 20260507181352 | 20 | 315 | 1.6 | 3.2 | 0.00 | 0.00 | 0.00 | 65 | 1017.6 |
| 20260507175850 | 20 | 315 | 3.2 | 3.2 | 0.00 | 0.00 | 0.00 | 65 | 1017.7 |
| 20260507174348 | 20 | 225 | 0.0 | 3.2 | 0.00 | 0.00 | 0.00 | 63 | 1017.4 |
| 20260507172845 | 20 | 225 | 1.6 | 3.2 | 0.00 | 0.00 | 0.00 | 62 | 1017.7 |
| 20260507171344 | 20 | 225 | 3.2 | 3.2 | 0.00 | 0.00 | 0.00 | 63 | 1017.7 |
| 20260507165841 | 20 | 270 | 1.6 | 3.2 | 0.00 | 0.00 | 0.00 | 62 | 1017.4 |
| 20260507164339 | 21 | 315 | 0.0 | 4.8 | 0.00 | 0.00 | 0.00 | 61 | 1017.7 |
| 20260507162837 | 21 | 270 | 1.6 | 3.2 | 0.00 | 0.00 | 0.00 | 60 | 1017.6 |
| 20260507161334 | 21 | 225 | 0.0 | 4.8 | 0.00 | 0.00 | 0.00 | 60 | 1017.4 |
| 20260507155833 | 21 | 135 | 3.2 | 4.8 | 0.00 | 0.00 | 0.00 | 60 | 1017.5 |
| 20260507154331 | 21 | 180 | 1.6 | 6.4 | 0.00 | 0.00 | 0.00 | 58 | 1017.3 |
| 20260507152828 | 21 | 270 | 3.2 | 6.4 | 0.00 | 0.00 | 0.00 | 59 | 1017.4 |
| 20260507151329 | 21 | 225 | 4.8 | 8.0 | 0.00 | 0.00 | 0.00 | 59 | 1017.6 |
| 20260507145823 | 21 | 158 | 4.8 | 9.7 | 0.00 | 0.00 | 0.00 | 56 | 1018.0 |
| 20260507144322 | 21 | 180 | 4.8 | 8.0 | 0.00 | 0.00 | 0.00 | 53 | 1018.0 |
| 20260507142819 | 22 | 315 | 3.2 | 12.9 | 0.00 | 0.00 | 0.00 | 54 | 1017.9 |
| 20260507141317 | 22 | 135 | 4.8 | 12.9 | 0.00 | 0.00 | 0.00 | 52 | 1018.0 |
| 20260507135815 | 22 | 135 | 9.7 | 12.9 | 0.00 | 0.00 | 0.00 | 53 | 1018.0 |
| 20260507134314 | 22 | 225 | 6.4 | 14.5 | 0.00 | 0.00 | 0.00 | 51 | 1017.8 |
| 20260507132810 | 23 | 180 | 6.4 | 11.3 | 0.00 | 0.00 | 0.00 | 47 | 1017.9 |
| 20260507131309 | 23 | 180 | 8.0 | 12.9 | 0.00 | 0.00 | 0.00 | 44 | 1017.9 |
| 20260507125807 | 23 | 45 | 3.2 | 12.9 | 0.00 | 0.00 | 0.00 | 45 | 1018.1 |
| 20260507124305 | 23 | 225 | 4.8 | 14.5 | 0.00 | 0.00 | 0.00 | 43 | 1018.4 |
| 20260507122802 | 23 | 270 | 4.8 | 12.9 | 0.00 | 0.00 | 0.00 | 36 | 1018.3 |
| 20260507121300 | 24 | 293 | 6.4 | 11.3 | 0.00 | 0.00 | 0.00 | 43 | 1018.4 |
| 20260507115758 | 24 | 180 | 6.4 | 14.5 | 0.00 | 0.00 | 0.00 | 43 | 1018.5 |
| 20260507114256 | 24 | 90 | 8.0 | 12.9 | 0.00 | 0.00 | 0.00 | 50 | 1018.4 |
| 20260507112753 | 25 | 225 | 9.7 | 14.5 | 0.00 | 0.00 | 0.00 | 52 | 1018.2 |
| 20260507111251 | 24 | 135 | 8.0 | 12.9 | 0.00 | 0.00 | 0.00 | 50 | 1018.4 |
| 20260507105750 | 24 | 180 | 12.9 | 14.5 | 0.00 | 0.00 | 0.00 | 55 | 1018.2 |
| 20260507104247 | 24 | 135 | 9.7 | 14.5 | 0.00 | 0.00 | 0.00 | 61 | 1018.2 |
| 20260507102745 | 23 | 135 | 12.9 | 12.9 | 0.00 | 0.00 | 0.00 | 63 | 1018.4 |